GFSCGP_700_spd_000.txt.gz
Wind_Speed
34 37 39 38 39 43 45 45 46 44 42 49 53 56 54 51 53 55 50 46 43 41 32 30 30 32 37 37 36 34 31 29 32 32 35 38 36 32 29 29 29 31 32 33
43 51 47 42 44 44 43 46 48 52 47 49 53 59 57 56 56 54 51 46 40 38 34 35 30 32 36 34 31 31 29 29 30 32 31 34 33 30 29 29 26 24 25 28
51 51 42 39 42 39 50 46 53 53 48 49 53 64 60 50 47 44 42 39 37 34 28 19 19 27 28 28 27 23 24 26 28 30 32 31 31 31 27 18 13 14 20 26
44 44 42 40 46 44 58 49 51 47 38 33 34 40 48 55 50 42 36 31 22 25 17 18 20 23 27 23 22 24 23 25 28 29 28 26 27 24 19 15 13 14 20 24
43 38 39 37 42 30 44 37 40 42 43 39 25 20 36 36 38 25 13 10 26 19 28 31 28 29 29 25 22 25 26 27 24 24 26 26 28 27 19 15 15 16 17 24
39 37 43 40 39 39 34 31 34 37 33 19 26 25 52 15 16 11 21 34 30 33 35 28 31 31 30 27 26 21 20 21 18 23 23 25 29 24 22 22 20 18 21 22
39 42 41 35 34 37 39 37 8 5 4 13 20 26 49 38 37 30 31 39 35 34 31 31 34 31 30 25 24 21 21 19 13 17 22 25 26 28 28 25 23 21 22 22
32 41 34 34 31 33 33 35 21 7 9 22 29 23 41 39 37 41 29 27 33 36 30 27 34 29 29 24 18 19 21 17 12 17 22 25 28 27 27 25 24 21 23 24
28 45 42 41 37 32 34 28 40 30 34 8 34 46 54 41 15 22 24 18 25 24 22 24 28 29 28 22 16 17 15 16 22 24 23 27 31 29 25 24 27 26 24 26
31 28 44 32 26 34 35 34 17 14 5 8 20 28 38 37 24 16 22 17 19 14 20 19 21 24 21 18 13 12 18 23 30 28 28 31 33 32 33 31 29 30 28 29
26 23 43 34 32 34 31 36 37 30 21 12 16 27 45 40 38 31 21 30 39 31 24 22 16 14 12 18 20 22 27 36 28 26 28 35 36 37 37 35 34 35 35 34
31 24 25 47 41 28 30 31 38 27 19 26 18 21 56 53 60 54 47 39 26 28 22 16 19 24 26 32 39 40 38 40 35 38 44 41 37 37 41 41 40 41 39 38
35 32 29 24 36 45 56 48 36 38 39 37 25 32 50 55 63 49 55 52 49 48 51 52 45 43 46 55 61 52 51 50 41 41 40 42 44 43 43 45 44 44 44 44
41 46 44 31 37 33 19 34 41 44 37 39 41 47 56 62 59 51 60 67 67 58 47 53 52 44 48 51 43 44 42 43 45 41 42 49 51 50 48 48 46 45 44 49
40 50 49 59 57 54 61 62 64 54 60 58 65 60 55 65 66 68 77 71 68 70 61 61 55 48 50 42 38 45 47 47 49 50 48 50 53 52 49 47 48 48 50 50
28 28 48 55 63 69 64 64 68 69 68 71 63 61 71 73 72 79 70 59 60 55 50 50 62 59 49 45 48 47 47 48 51 49 49 48 51 51 50 48 49 50 51 52
52 44 43 37 28 44 40 53 61 74 68 64 58 66 47 53 51 51 53 53 47 44 49 53 53 55 56 53 48 46 48 47 52 53 57 56 53 49 48 49 50 51 51 48
57 53 43 48 44 28 42 40 31 38 44 54 42 33 32 40 50 55 48 46 51 54 51 53 58 58 50 48 44 40 37 43 49 50 52 52 52 50 46 44 43 44 46 44
42 44 37 32 41 42 42 36 29 29 28 22 19 21 19 18 32 28 41 39 37 41 40 44 50 50 50 39 32 36 40 39 41 45 44 43 42 39 37 40 41 42 40 35
25 22 28 36 14 12 13 26 29 27 23 17 17 30 34 34 30 22 23 25 26 28 29 32 39 41 40 33 29 29 31 34 32 30 31 33 33 35 39 37 37 37 38 36
24 26 29 34 34 30 27 36 44 14 19 45 35 41 50 53 50 51 53 45 52 51 47 42 33 29 26 30 27 29 31 36 36 34 33 35 35 35 36 35 38 40 41 42
21 17 18 13 19 18 28 36 35 40 37 40 47 45 51 52 54 52 59 63 64 64 61 60 55 37 29 23 26 31 26 27 40 42 40 39 39 42 43 42 41 41 42 42
23 22 23 18 29 38 44 44 39 35 43 41 45 46 51 54 52 49 51 52 58 56 59 58 57 59 58 59 56 35 30 31 28 36 39 38 38 39 45 49 51 51 47 46
31 30 35 37 41 39 38 36 36 41 45 48 48 49 51 49 47 45 44 48 51 55 56 55 57 61 67 63 58 61 57 56 45 38 38 42 42 44 49 50 48 51 54 52
38 36 38 41 42 40 41 36 41 46 48 48 47 47 45 48 50 51 54 53 50 49 50 54 54 55 58 51 47 50 55 55 56 55 50 43 42 41 42 42 38 37 33 36
43 42 41 47 43 42 43 43 46 46 44 41 44 45 46 49 52 52 53 54 57 57 55 51 48 50 51 51 51 47 43 46 49 54 54 51 49 48 47 45 45 49 50 49

GFSCGP_700_spd_003.txt.gz
Wind_Speed
35 37 39 38 36 37 39 41 47 47 44 50 54 59 56 51 50 53 54 52 49 44 35 33 32 32 33 34 37 40 39 37 36 35 36 36 35 37 39 37 35 33 31 31
40 48 41 37 39 38 38 42 47 51 46 47 53 61 56 54 54 49 47 43 41 38 34 28 30 33 34 34 41 44 41 40 37 36 35 35 33 33 37 37 35 32 31 30
46 48 42 40 41 38 48 44 51 53 48 48 51 64 45 42 42 44 37 35 27 25 20 19 24 26 25 30 35 37 35 33 33 35 37 35 35 36 37 38 36 32 28 26
38 39 36 36 39 35 49 37 43 42 39 31 26 35 36 45 25 40 14 9 8 26 25 19 19 23 27 27 27 29 28 26 32 35 36 37 35 33 30 31 29 26 26 27
37 35 34 32 36 26 39 30 31 36 36 35 28 16 26 28 32 17 14 6 32 27 34 30 30 32 29 29 27 28 26 26 30 32 34 33 29 28 28 29 30 31 29 26
37 35 36 37 35 32 29 28 28 31 30 14 27 22 67 18 15 7 14 35 30 29 26 29 30 32 30 25 26 23 27 28 29 29 26 23 23 24 27 28 34 32 28 24
39 43 42 39 34 32 30 29 7 4 5 11 13 17 59 36 42 36 28 33 31 22 24 35 36 33 30 25 26 28 24 27 22 22 20 17 19 21 24 29 33 31 27 24
36 39 26 16 16 20 21 20 17 7 8 19 30 21 52 48 47 44 47 33 20 23 25 35 25 29 25 21 27 25 24 23 20 21 14 12 19 23 25 31 35 32 27 24
28 40 33 29 25 24 27 29 40 39 37 10 34 48 58 57 50 30 22 23 27 26 21 22 18 17 21 22 22 21 18 20 18 19 20 21 24 30 33 36 35 31 29 27
26 27 32 25 25 28 28 30 17 14 4 11 14 36 40 44 41 43 41 31 22 29 29 32 31 29 20 17 16 15 15 15 15 17 22 27 29 33 34 37 35 34 32 30
22 20 38 29 35 39 39 38 40 34 27 16 19 24 54 61 50 39 38 34 26 33 35 29 30 22 13 9 9 8 9 17 23 30 27 29 31 32 37 41 41 39 39 36
31 28 27 47 50 39 33 29 29 17 19 33 35 31 49 55 59 57 57 52 45 50 51 46 29 38 38 39 37 34 33 42 43 40 46 43 40 40 38 46 48 45 45 43
30 25 26 24 29 30 37 40 41 48 45 39 29 38 48 55 60 58 57 51 46 44 34 29 35 38 41 44 51 54 54 54 49 43 42 41 44 41 40 42 50 52 52 52
36 41 39 24 27 39 45 43 41 42 30 42 41 44 42 52 56 59 49 44 45 43 44 46 40 48 46 50 54 56 48 49 48 40 38 41 46 43 45 44 49 50 50 55
39 41 43 48 43 39 39 46 55 57 54 46 47 47 52 55 50 53 62 60 51 51 49 49 45 48 53 49 49 52 49 51 47 41 41 45 47 51 46 48 51 55 53 52
32 40 40 47 53 46 42 44 47 41 44 56 55 58 47 49 51 54 56 60 60 55 49 51 45 49 48 49 54 53 53 56 58 55 52 55 54 53 52 51 54 58 62 61
42 34 30 38 40 36 33 50 42 42 42 45 34 27 33 34 41 38 44 47 49 43 46 44 45 46 48 54 58 60 57 53 54 57 59 60 56 53 50 52 53 55 57 58
49 47 42 43 45 23 51 40 35 26 23 18 13 15 18 20 17 20 20 31 41 43 37 38 39 40 43 45 53 60 56 51 52 54 56 59 60 51 52 54 56 57 57 57
33 33 20 11 20 28 40 34 34 32 21 22 16 20 28 30 28 23 21 31 39 39 39 39 36 37 34 34 39 47 44 46 46 43 50 53 55 51 47 48 51 56 56 56
10 14 17 19 7 5 20 27 30 26 22 18 27 40 45 51 52 41 44 50 55 53 54 54 51 50 48 40 38 36 32 32 36 34 37 44 50 46 43 43 46 51 53 53
20 16 24 26 12 18 28 30 32 16 23 33 45 42 39 39 43 51 52 50 53 53 57 58 57 59 56 50 53 43 36 31 33 35 37 39 41 46 45 46 47 46 46 48
13 9 11 13 11 15 26 24 29 38 40 36 35 36 42 47 49 49 51 48 47 48 47 49 54 52 53 52 48 56 53 54 46 39 35 37 37 40 45 46 48 49 48 49
26 32 33 22 20 28 33 39 36 39 44 43 40 44 48 50 49 48 47 48 48 48 49 48 53 58 53 49 50 52 50 56 62 52 47 46 39 36 39 43 44 44 42 47
36 30 33 32 39 40 39 36 40 39 40 44 45 50 50 49 47 46 48 47 48 48 46 47 49 50 53 50 48 47 50 48 49 49 52 49 51 52 39 37 36 35 37 44
37 32 36 42 47 42 40 40 39 41 44 45 48 48 47 46 45 49 51 52 55 57 58 59 59 58 56 54 52 49 49 48 47 46 45 46 47 52 52 53 46 44 39 35
43 45 44 47 43 43 42 41 44 45 47 48 46 46 46 48 53 52 55 56 59 61 64 69 71 71 67 63 58 55 53 54 51 49 45 45 44 48 49 50 51 53 51 48

GFSCGP_700_spd_006.txt.gz
Wind_Speed
36 37 38 39 36 37 39 42 47 46 42 48 52 57 53 48 45 44 43 43 38 34 31 31 29 27 28 29 34 37 39 39 41 42 42 39 38 38 38 40 40 40 38 37
39 41 38 35 35 34 37 42 47 52 43 46 53 61 51 45 45 38 34 32 31 28 16 16 14 17 21 28 34 39 40 41 44 45 40 38 37 39 38 37 38 40 40 38
40 40 38 37 37 40 43 42 50 52 46 44 49 57 33 31 38 34 20 18 12 6 23 18 19 15 18 20 22 28 35 40 42 40 38 38 39 41 41 40 39 40 41 39
35 33 30 25 25 23 37 29 36 40 39 27 26 27 35 34 20 25 8 7 2 20 32 32 33 32 26 28 32 31 30 28 26 30 32 35 38 39 36 36 34 35 38 38
29 29 29 31 31 25 33 25 27 31 33 37 17 13 32 29 26 7 5 6 14 34 22 46 37 33 29 32 32 32 28 25 24 26 27 30 36 37 37 37 36 36 36 36
31 27 27 28 33 34 32 30 27 28 28 12 23 19 60 12 3 9 4 28 20 35 41 38 29 33 31 32 32 29 18 17 21 26 30 32 33 34 35 37 37 36 36 38
31 35 40 43 40 37 35 29 6 4 3 10 6 14 39 28 32 34 25 39 48 35 26 26 28 33 33 37 30 23 17 15 20 26 30 29 29 28 29 30 31 33 36 39
25 40 27 22 27 26 27 22 14 7 5 15 26 16 51 45 52 54 37 33 26 17 19 22 26 21 20 18 15 14 14 15 21 25 27 26 22 19 21 25 28 31 35 40
22 40 36 22 22 26 27 26 32 34 33 14 33 39 48 57 38 35 24 12 24 28 26 20 20 25 28 19 14 14 14 18 22 24 25 23 18 17 18 23 31 36 39 42
32 35 42 31 25 32 31 31 15 11 3 6 12 32 30 54 62 56 41 34 37 34 30 31 31 30 17 11 5 5 6 8 11 13 16 17 19 23 26 26 31 36 41 44
31 28 37 25 32 35 30 26 29 29 24 10 16 22 47 52 49 46 44 35 34 34 39 44 50 47 29 28 28 23 16 15 15 16 19 22 24 27 29 29 33 36 40 46
34 35 33 52 41 35 33 39 36 28 17 35 31 26 43 41 43 52 53 48 42 39 47 49 45 37 30 33 40 36 34 38 40 40 39 41 41 36 39 34 36 40 43 50
21 18 8 12 21 23 25 27 27 29 30 28 20 17 36 40 39 49 54 51 50 43 38 39 38 40 41 43 48 49 52 51 51 51 51 49 48 46 43 40 41 43 47 49
38 35 30 25 29 37 35 36 39 32 28 33 35 42 42 40 40 42 47 49 56 61 58 51 51 53 52 52 53 59 57 52 51 58 56 57 54 47 47 43 43 42 42 44
45 39 39 44 41 35 33 36 40 46 43 32 42 43 39 52 56 58 62 63 68 64 58 55 54 52 53 54 52 53 56 55 54 53 53 52 52 51 45 48 44 42 41 42
28 25 26 38 40 46 43 47 52 50 53 44 40 37 38 41 46 47 41 45 51 57 59 52 46 38 36 45 50 51 54 54 50 49 51 53 52 55 59 58 53 49 50 48
41 36 34 38 40 29 29 47 42 43 45 43 42 41 41 32 32 30 29 30 32 35 39 42 41 38 36 38 45 47 48 52 52 54 54 56 58 57 57 57 59 63 65 60
43 43 38 36 37 20 36 32 25 22 23 27 28 28 24 25 28 28 31 33 36 39 44 47 48 50 50 46 41 42 43 47 52 55 61 62 61 58 54 58 58 59 61 65
48 48 27 19 25 30 36 31 30 28 26 26 25 24 25 30 35 37 38 39 43 47 52 55 56 56 55 55 57 53 48 44 44 46 50 51 55 56 58 56 60 61 64 67
17 18 26 16 7 6 17 25 23 31 26 23 18 32 38 38 43 48 45 45 48 50 50 51 52 54 51 49 53 57 54 52 54 51 49 47 42 42 45 52 57 61 60 62
23 22 27 33 15 18 22 29 32 13 14 21 34 38 38 38 40 44 48 49 49 49 49 51 51 51 52 51 50 50 51 50 51 52 55 55 54 48 42 43 46 46 49 54
16 14 18 11 8 12 21 20 19 28 40 41 38 42 39 39 44 47 49 51 52 51 51 48 48 49 49 49 50 50 49 51 51 50 52 52 54 58 58 50 43 36 36 50
22 29 20 18 26 36 38 41 35 36 41 39 43 40 42 45 48 50 52 53 52 52 49 48 52 54 55 55 58 60 57 56 54 53 50 51 51 49 47 54 55 48 41 35
40 37 40 40 43 36 36 37 39 36 37 37 39 43 46 48 50 51 52 52 54 54 54 55 58 61 64 63 65 67 68 67 64 60 57 53 52 50 50 45 50 56 54 48
39 38 39 40 45 41 42 35 33 37 37 40 44 46 47 49 49 50 53 55 56 57 56 59 64 68 72 74 76 74 73 73 72 70 65 62 57 55 52 51 47 50 54 52
46 47 40 42 40 42 40 39 40 41 44 45 44 44 45 47 52 54 55 54 56 59 62 66 70 74 78 81 83 82 79 77 77 77 73 67 64 56 55 53 50 47 49 51

GFSCGP_700_spd_009.txt.gz
Wind_Speed
31 32 31 31 31 32 35 38 42 42 39 46 47 50 46 42 39 37 36 33 29 23 24 9 6 8 13 20 28 32 36 36 40 41 41 43 42 41 39 37 36 39 42 42
35 37 32 33 30 30 32 36 41 45 34 41 47 52 47 39 36 32 29 22 15 9 2 3 5 13 17 19 21 24 31 34 36 40 41 42 42 42 39 39 39 41 42 41
39 37 34 34 33 33 36 35 36 39 36 41 45 40 27 29 35 14 18 16 6 8 7 16 21 21 23 32 27 29 27 29 30 32 37 39 41 42 41 41 42 42 41 41
36 28 22 24 22 16 28 24 27 31 32 21 30 24 32 17 8 23 9 4 8 17 16 21 30 38 44 32 32 31 34 34 32 33 29 29 28 29 29 33 38 39 39 40
16 22 28 27 26 16 26 26 30 34 36 35 18 15 20 22 20 7 12 6 15 25 33 34 43 39 31 31 30 29 29 34 32 30 29 29 29 27 25 31 35 39 40 41
27 32 33 31 21 26 29 32 30 26 24 11 19 13 15 5 10 10 10 17 33 42 39 33 20 22 27 32 30 37 32 29 25 26 22 23 27 29 30 32 33 37 40 42
34 33 32 32 36 35 32 25 8 4 2 9 7 12 29 21 24 28 27 24 19 16 19 21 23 25 26 27 34 38 26 25 25 24 25 27 28 28 30 30 32 34 38 41
33 38 30 30 23 22 31 31 21 7 6 11 23 16 41 33 31 38 6 17 16 13 17 22 27 23 18 24 25 22 25 26 27 28 27 26 25 24 25 27 29 30 33 36
25 35 23 25 32 32 30 27 33 35 30 9 29 36 50 54 24 11 24 25 23 23 28 34 36 35 33 27 24 21 22 24 26 27 25 22 22 22 22 23 22 21 24 29
17 25 42 36 40 40 37 39 20 15 3 13 12 32 35 45 35 26 27 21 22 26 28 36 38 43 40 28 24 29 27 22 18 15 15 15 17 21 20 19 18 18 20 23
35 30 44 37 29 28 28 33 32 31 31 11 10 13 39 34 35 41 40 39 40 43 42 34 30 37 47 41 28 30 33 38 37 36 33 30 29 25 22 22 21 21 23 23
39 25 22 33 36 42 40 40 37 21 13 23 23 19 30 34 32 35 43 51 54 48 45 41 36 32 33 38 36 35 34 37 42 45 49 52 49 43 41 36 31 34 36 36
21 20 20 16 21 18 25 27 29 32 31 29 19 11 13 19 26 44 48 46 50 52 52 53 51 48 52 52 52 55 55 53 55 60 59 56 53 51 48 44 41 40 39 41
36 36 30 29 25 23 27 40 43 36 25 30 32 34 39 35 41 46 48 55 56 57 59 59 56 54 49 47 43 46 52 57 56 53 53 54 57 57 52 48 43 43 40 41
31 32 36 40 43 42 36 38 37 40 40 28 38 44 52 53 52 49 47 47 49 51 54 54 52 49 47 39 34 38 43 48 51 51 53 56 58 57 56 57 50 47 45 43
38 34 33 37 40 33 39 47 54 57 58 50 45 43 45 42 41 42 40 44 45 45 44 44 44 44 46 46 44 38 37 39 41 45 48 52 55 50 50 55 53 51 51 50
35 36 36 39 43 38 31 49 45 43 45 45 44 40 37 37 37 36 40 36 35 34 36 40 45 48 52 54 56 56 51 47 45 46 47 49 54 59 58 56 57 59 58 58
38 39 37 34 33 21 44 40 30 29 28 28 23 22 23 24 28 29 30 32 35 38 42 47 51 55 57 58 58 60 58 58 58 56 52 49 50 52 54 55 56 57 55 56
46 49 32 26 31 31 40 36 38 35 33 24 19 19 20 24 31 35 34 37 40 43 45 47 49 52 54 55 56 58 55 51 49 50 51 52 53 55 52 49 51 53 56 56
21 25 29 22 8 7 13 17 17 19 25 22 11 21 29 31 36 38 37 41 42 43 45 47 49 50 52 54 55 57 56 57 54 53 53 50 47 48 51 52 50 51 50 54
22 24 26 31 19 17 24 25 23 12 14 9 31 34 38 38 37 39 40 41 45 47 49 50 51 54 54 56 58 61 62 62 60 58 56 54 51 52 50 51 52 51 52 51
18 13 14 11 13 13 21 15 10 19 30 41 33 35 40 35 35 39 41 44 46 48 50 52 55 57 58 58 59 63 65 66 66 66 66 65 62 60 57 55 53 52 50 52
22 24 25 26 17 22 29 39 39 30 33 35 33 34 36 36 40 43 45 46 49 51 54 55 56 59 59 58 58 63 65 69 74 76 76 74 73 69 64 60 57 56 55 51
33 35 39 40 45 41 38 31 27 27 27 30 32 37 38 41 43 44 46 49 51 53 54 55 58 61 65 65 68 71 74 77 80 82 83 83 82 78 71 65 60 58 56 56
41 42 43 44 41 38 32 27 31 31 31 33 35 38 40 40 41 45 48 50 52 53 56 60 65 70 74 75 77 78 80 83 84 85 85 85 84 81 77 71 65 61 56 57
46 46 41 46 38 36 39 34 36 40 38 37 37 36 37 41 43 45 47 50 52 56 60 67 71 74 76 78 81 84 85 85 85 84 82 81 80 77 75 73 70 64 60 57

GFSCGP_700_spd_015.txt.gz
Wind_Speed
28 26 19 23 20 25 27 27 30 30 27 28 30 26 30 26 22 22 23 21 16 20 27 22 16 13 14 12 10 7 11 17 22 22 24 27 30 33 38 43 49 50 48 46
26 28 25 21 27 28 31 27 29 28 17 24 30 29 30 14 22 20 17 11 17 18 18 14 12 14 16 16 17 17 19 24 24 27 26 27 28 30 35 39 45 50 50 49
32 23 22 28 32 31 25 25 26 25 23 25 20 22 21 17 15 13 16 22 20 17 12 11 13 15 17 19 22 26 26 23 19 19 25 31 32 31 31 34 39 48 50 52
22 24 17 15 14 13 20 18 22 23 19 19 18 17 19 14 10 12 15 23 18 10 11 14 19 24 23 25 24 26 21 20 22 22 22 25 31 35 36 37 37 41 48 52
8 11 13 15 16 17 18 21 23 23 28 21 16 24 20 20 13 14 21 16 12 14 15 22 29 32 25 22 22 22 22 21 22 24 29 30 30 36 38 38 40 43 45 50
13 18 16 19 23 21 21 25 23 24 20 14 13 12 8 5 2 18 20 16 19 24 27 30 30 27 23 22 21 22 24 25 27 27 27 29 31 32 34 38 41 43 45 47
15 21 27 25 21 18 16 16 13 13 15 20 24 16 22 18 25 25 22 29 34 33 33 34 27 30 25 24 25 25 27 27 26 27 27 24 21 25 28 27 29 34 38 40
24 28 15 11 14 18 22 18 15 13 16 18 30 17 25 27 27 28 27 32 35 37 40 39 29 26 26 28 31 34 36 36 33 32 31 28 24 19 20 19 18 20 25 29
16 22 11 24 27 23 11 13 14 12 26 14 27 34 41 34 37 40 39 39 42 35 25 26 24 26 27 31 34 36 40 37 35 35 33 32 33 30 28 28 28 30 27 25
13 22 17 12 19 22 23 24 17 13 5 14 24 37 34 32 29 33 34 34 33 28 26 26 29 31 28 31 38 39 40 40 40 38 37 37 36 37 41 43 41 39 41 40
19 18 39 23 22 22 18 22 21 24 23 12 17 20 30 27 30 36 28 29 29 26 24 29 36 38 43 50 50 40 40 42 43 44 43 41 43 46 47 47 48 50 46 45
18 18 25 36 30 30 35 36 29 22 8 19 26 27 36 39 37 34 32 27 27 31 35 45 52 53 51 49 45 40 37 37 37 39 41 42 41 43 45 49 49 47 47 45
10 9 12 20 26 19 20 16 20 29 34 33 23 26 32 36 29 32 34 35 38 52 56 53 55 50 50 47 44 39 35 35 36 37 40 41 42 40 41 42 45 45 45 42
25 24 26 24 29 33 32 31 31 27 19 20 25 35 45 38 41 39 46 54 66 60 56 54 47 41 41 42 39 37 37 38 38 36 36 38 40 41 41 42 43 44 42 41
23 26 27 29 31 33 36 38 43 43 46 44 50 44 48 53 43 45 46 45 46 46 45 43 43 45 44 41 39 39 39 39 41 43 44 44 45 48 50 50 51 52 51 50
17 24 24 36 40 34 36 45 50 43 44 45 45 48 44 41 41 39 40 41 41 40 41 39 38 39 39 41 43 44 45 48 48 47 47 49 51 52 52 54 55 57 57 58
28 23 24 35 31 30 30 45 36 41 42 42 43 39 38 36 39 40 41 37 33 31 32 33 35 39 42 45 48 52 50 49 48 47 48 49 51 54 55 55 56 57 59 62
37 37 26 34 30 20 38 28 26 33 36 39 41 42 37 31 34 32 29 29 31 31 33 37 41 43 45 48 50 51 53 52 52 53 55 56 58 58 59 59 58 58 57 58
26 28 24 21 28 31 39 34 34 33 35 28 30 30 28 25 26 27 18 24 35 36 38 39 44 48 49 47 49 51 52 55 57 59 61 62 63 64 64 64 62 60 61 61
16 21 27 23 21 17 30 21 23 28 27 28 27 21 18 25 32 31 27 34 40 41 41 40 44 45 48 49 50 53 54 57 61 64 67 67 68 69 70 72 73 72 71 71
17 19 28 31 32 29 29 26 22 15 26 19 18 18 30 39 39 39 42 38 34 36 40 42 42 45 47 50 53 54 57 61 64 67 71 74 77 80 80 81 82 83 82 80
18 15 17 14 14 16 18 17 17 18 21 24 25 40 43 39 38 35 33 35 37 39 40 42 45 46 47 49 53 56 59 64 69 74 77 79 81 82 83 84 85 86 86 85
20 29 20 22 20 23 26 31 37 37 37 40 39 34 34 34 32 32 33 35 38 41 42 42 45 46 46 50 54 60 64 70 75 76 78 80 81 83 85 87 88 88 87 87
32 34 30 31 35 37 32 33 33 31 29 27 25 30 30 32 37 38 37 37 39 39 40 43 44 47 51 54 58 65 70 71 73 75 77 81 83 80 73 69 69 71 73 76
33 24 31 31 39 38 34 29 26 30 30 31 32 34 32 34 35 37 36 37 37 39 40 41 46 51 54 58 64 65 66 66 69 72 77 74 63 58 57 56 56 55 55 55
41 42 39 42 39 37 34 29 30 35 35 37 35 34 35 33 34 35 36 37 37 39 40 44 49 53 59 62 58 60 60 62 66 73 69 56 50 49 46 45 43 38 40 42

GFSCGP_700_spd_021.txt.gz
Wind_Speed
20 21 21 18 21 19 17 19 23 23 22 28 32 30 22 20 15 16 19 21 25 27 27 30 27 14 10 11 9 9 9 10 12 13 14 17 20 23 23 26 30 32 35 39
24 26 22 16 16 17 19 26 28 28 20 16 19 22 22 20 23 17 22 25 28 28 25 22 16 11 10 11 13 14 14 16 17 16 15 15 18 20 23 25 27 29 30 32
29 22 16 18 15 20 23 24 27 21 13 18 23 22 19 21 20 19 23 28 27 26 21 15 15 13 10 10 10 12 14 15 17 20 19 18 19 20 21 22 24 27 30 33
20 16 18 17 23 21 19 8 8 12 15 13 12 10 23 9 16 20 18 16 20 22 20 17 15 14 14 15 16 17 15 16 17 17 20 23 23 22 20 20 23 23 24 28
12 7 6 8 5 5 8 10 12 17 18 19 19 14 8 16 19 17 17 20 21 19 19 21 20 18 19 19 16 14 15 17 18 19 18 17 19 20 21 19 19 20 21 21
11 10 11 9 8 11 11 13 14 17 19 4 13 16 11 5 10 10 15 18 19 19 22 24 25 22 22 18 16 14 14 14 15 16 16 18 19 20 20 21 22 18 18 19
5 10 11 14 15 15 13 7 3 2 3 6 13 10 13 6 15 12 13 14 17 21 24 26 25 24 23 21 19 16 17 16 17 17 19 22 21 22 24 26 26 25 26 25
11 9 12 16 18 8 15 9 5 5 3 5 18 10 10 12 16 13 15 19 23 24 24 27 29 30 26 23 22 23 25 28 26 26 29 30 30 30 31 32 33 34 33 33
10 11 12 15 15 13 10 12 12 14 17 7 10 10 18 23 21 17 17 20 20 20 25 26 29 32 34 36 35 36 35 37 37 41 43 44 41 38 36 36 33 32 33 33
17 15 19 21 21 10 12 10 7 7 1 5 9 13 12 11 19 15 13 21 26 24 26 29 30 30 31 33 35 39 45 49 54 53 51 50 46 46 44 37 35 35 35 33
21 21 17 18 15 14 13 17 17 15 16 4 2 9 19 18 18 19 27 29 30 28 25 27 31 35 39 51 59 59 52 48 50 43 43 41 40 43 44 44 42 40 39 36
25 15 21 29 23 16 19 20 20 16 9 13 16 24 32 31 22 24 29 30 33 36 40 43 48 54 57 50 39 35 35 39 39 36 37 37 34 35 36 35 36 37 39 40
25 17 15 15 14 17 21 23 16 12 14 22 12 14 18 25 30 35 42 43 46 51 52 54 53 47 40 37 38 38 35 34 31 30 31 33 36 37 38 39 41 42 43 44
28 27 25 23 8 9 12 17 19 23 14 22 33 41 46 45 47 47 49 49 49 48 48 46 44 37 36 38 37 30 28 28 30 31 35 38 39 41 45 47 49 50 51 52
21 26 25 32 32 31 34 37 36 34 36 29 47 44 48 45 46 44 42 40 40 42 44 44 41 43 42 36 32 30 31 32 35 37 39 41 42 42 44 46 49 52 53 54
31 28 24 32 30 29 30 35 36 40 42 45 45 43 33 31 31 35 37 38 41 43 42 42 41 40 38 37 35 35 39 41 42 44 43 42 43 44 45 47 49 51 53 55
24 24 22 23 22 23 24 42 36 32 32 31 31 28 22 26 30 34 35 38 41 42 39 37 34 31 31 36 39 40 41 41 42 42 44 45 47 48 50 53 56 58 60 61
31 24 22 16 11 2 36 29 24 24 23 22 24 28 35 41 39 38 38 37 36 35 31 30 31 33 38 39 38 38 38 39 41 43 45 46 48 52 56 60 62 64 65 66
34 32 19 12 20 21 30 30 27 27 30 35 37 38 36 35 35 36 36 34 31 28 28 32 36 38 37 37 36 37 39 41 42 43 44 48 54 58 64 67 65 63 64 64
28 31 30 20 9 10 24 22 17 16 33 39 33 30 31 30 29 28 25 30 33 35 38 41 43 39 35 35 37 39 41 41 42 44 48 53 60 65 66 63 62 62 64 65
24 24 35 40 19 18 27 27 22 15 31 27 22 24 27 29 25 29 35 39 41 44 47 43 31 30 35 39 40 40 40 41 43 47 53 58 65 63 61 59 61 62 66 70
22 18 28 27 15 15 24 18 23 28 28 25 26 25 29 34 40 44 43 42 39 37 34 32 35 36 37 39 39 39 41 42 45 51 57 61 59 57 56 56 58 64 70 75
23 35 23 24 19 22 20 27 31 28 30 33 33 35 38 37 39 38 36 35 36 37 38 36 37 38 38 38 38 39 40 42 47 53 57 58 54 52 53 55 60 67 70 56
35 35 37 40 44 41 37 32 28 28 31 29 31 33 32 32 34 35 35 34 36 37 38 37 38 38 36 36 37 37 39 43 48 54 56 53 49 50 51 55 60 67 61 48
39 36 43 38 38 42 38 33 26 25 25 27 29 29 34 35 37 38 38 37 37 38 38 40 38 37 35 35 35 36 40 44 49 53 55 49 48 49 51 54 58 64 53 44
40 46 46 50 42 39 34 28 30 32 30 30 31 33 34 38 40 37 38 38 37 36 36 36 36 37 36 35 33 36 40 44 50 52 52 46 47 48 50 54 56 53 46 39

GFSCGP_700_spd_024.txt.gz
Wind_Speed
19 21 21 18 17 17 21 23 23 23 18 25 28 31 27 14 15 16 20 24 23 26 24 22 23 21 12 11 12 11 10 10 11 11 12 14 15 16 18 22 24 27 29 31
27 27 24 20 23 24 23 22 24 23 19 24 22 19 15 19 17 22 24 23 26 24 24 21 18 15 12 13 11 11 11 11 10 11 12 14 17 18 20 22 23 25 28 29
32 26 20 19 19 22 22 24 24 24 21 16 20 24 17 19 22 19 20 21 22 24 24 18 15 14 14 12 12 11 11 11 11 11 12 14 15 17 18 21 24 24 26 28
20 19 21 23 24 22 26 25 23 14 11 10 10 8 14 23 14 19 20 21 21 19 18 16 14 15 16 14 15 16 15 14 16 14 15 16 17 18 20 20 21 23 23 23
12 8 9 20 19 14 13 8 9 12 16 19 20 14 11 15 18 22 20 20 20 19 16 16 17 18 19 18 20 20 20 19 20 18 18 18 16 16 18 19 19 21 23 23
16 13 12 10 8 9 10 11 14 18 19 6 21 19 5 11 6 11 17 19 21 19 18 19 20 21 23 24 25 23 17 16 17 17 18 19 20 19 18 19 20 22 23 24
10 14 13 14 15 16 17 14 4 3 2 6 10 7 21 11 9 9 10 16 22 19 18 20 22 24 25 27 29 30 25 21 19 19 21 23 23 22 22 21 21 25 28 30
10 7 15 19 24 24 19 24 11 7 4 5 9 8 9 14 11 8 11 15 17 16 20 20 22 24 26 29 32 33 34 36 38 39 40 41 41 40 37 37 36 36 33 33
10 13 18 23 20 23 17 23 22 17 16 6 10 17 17 13 13 17 11 10 12 13 16 20 23 27 31 33 36 39 41 43 45 48 51 50 50 48 48 48 49 47 45 45
21 16 18 19 21 22 22 16 10 10 1 5 7 13 16 10 14 7 7 11 16 19 22 23 23 26 29 33 36 39 43 47 50 52 52 52 50 48 44 41 37 35 36 35
28 25 15 21 27 28 26 24 17 15 17 5 2 11 10 12 11 12 19 23 26 26 30 35 39 41 42 44 49 50 51 49 45 45 45 44 39 38 39 39 38 38 37 37
27 16 20 26 22 25 26 26 25 22 10 18 16 24 21 21 22 23 21 23 28 36 43 46 47 46 43 43 42 39 35 36 40 41 40 37 36 35 36 36 38 40 39 40
29 18 13 13 20 25 26 31 30 30 25 26 10 13 20 19 16 22 31 38 43 45 45 47 44 40 38 36 34 34 37 38 35 33 34 33 33 35 38 40 42 46 49 50
32 32 30 25 16 12 21 35 26 21 15 18 33 29 34 31 31 40 42 44 44 44 42 39 38 36 35 36 36 33 31 30 29 28 30 32 35 37 40 43 45 46 48 51
34 34 33 35 36 27 29 31 28 27 30 26 43 38 44 40 42 43 43 40 39 38 37 36 36 38 38 36 33 29 26 28 30 33 35 38 40 41 40 40 41 43 46 49
31 29 31 32 29 29 35 44 42 42 44 43 42 45 40 36 35 38 39 36 35 34 35 37 37 36 34 31 29 28 31 34 38 39 39 39 39 38 40 42 44 47 50 53
32 31 29 31 30 25 26 43 41 41 41 41 38 35 25 34 33 31 30 33 37 39 36 32 30 30 29 28 30 33 34 35 36 37 37 37 39 41 42 44 48 53 58 62
31 31 27 17 16 3 32 36 35 36 35 31 28 27 27 27 30 37 37 33 33 33 32 29 28 28 29 31 33 33 33 34 35 36 38 40 40 41 44 49 55 60 64 63
33 30 19 13 22 29 35 31 28 22 34 32 27 26 28 34 34 35 31 34 33 31 28 28 29 33 35 37 33 32 33 34 38 39 40 40 42 44 48 53 59 62 61 55
39 36 32 24 8 10 33 26 19 23 29 33 30 29 27 31 29 28 25 27 27 27 30 35 41 39 39 34 31 32 37 39 39 39 39 40 41 45 50 57 61 58 53 53
26 32 39 41 20 21 28 26 27 18 34 27 26 33 27 27 27 26 29 30 34 39 42 41 35 31 30 32 34 37 39 40 39 39 38 39 42 47 53 59 59 52 52 55
31 22 29 24 13 16 36 28 32 35 29 28 34 30 28 29 29 33 37 40 38 35 34 32 32 32 33 36 37 38 40 40 40 39 38 40 45 48 54 58 52 50 53 57
27 37 27 25 18 22 19 19 21 23 29 35 30 29 29 32 36 38 37 36 35 33 34 33 33 34 36 37 39 40 40 39 39 39 39 43 46 49 54 54 49 50 53 56
33 34 32 34 37 38 34 33 36 38 38 28 26 28 31 34 35 36 34 34 35 36 36 36 35 35 37 39 41 40 39 39 40 39 40 44 46 49 53 52 48 50 53 53
33 32 40 37 38 39 40 40 37 32 27 27 25 29 33 34 34 33 35 35 39 41 39 38 37 37 37 39 39 39 40 40 39 39 41 44 47 50 52 50 47 50 50 51
40 42 37 36 32 34 34 27 21 23 24 26 32 34 34 34 35 35 37 38 40 39 38 37 36 36 37 39 39 39 40 40 39 39 42 44 47 50 52 50 46 44 46 47

GFSCGP_700_spd_030.txt.gz
Wind_Speed
22 24 26 20 14 13 16 18 19 21 21 23 24 25 22 24 27 27 18 15 18 20 23 23 18 15 14 12 11 11 11 11 11 11 12 11 12 11 12 12 14 15 16 18
26 29 21 20 21 22 23 23 27 25 23 25 23 27 26 27 23 16 16 18 22 25 25 20 17 15 14 12 11 11 11 10 12 11 10 9 9 15 17 18 18 20 21 21
31 24 17 19 22 26 27 28 28 25 23 23 25 30 26 17 15 15 19 22 25 25 21 19 16 14 12 11 11 11 12 12 12 13 13 14 17 20 20 20 23 25 26 26
28 30 30 31 33 30 30 29 25 23 18 13 9 7 10 12 14 19 23 26 25 20 19 19 19 17 14 13 13 14 14 15 16 17 20 22 18 19 17 20 23 23 25 27
30 24 21 22 24 25 23 23 16 18 20 19 18 11 15 16 20 24 25 25 23 21 20 20 19 18 17 15 14 14 14 14 15 16 17 18 19 21 23 25 26 28 30 31
33 27 22 19 15 15 18 14 14 11 11 6 24 22 7 14 9 15 20 23 19 20 21 20 20 19 18 16 14 13 13 14 14 16 17 19 23 27 29 31 32 34 34 35
23 25 26 21 15 15 20 16 3 2 3 6 8 15 28 12 13 14 17 16 17 20 20 20 20 18 16 15 15 15 18 21 24 27 32 35 38 40 41 41 42 41 41 41
17 9 24 23 25 16 21 23 9 7 4 3 5 9 8 13 22 16 17 18 21 21 20 19 17 15 14 15 17 21 25 29 34 38 40 42 43 42 42 43 43 44 42 38
13 12 13 15 21 23 20 29 26 13 11 5 11 17 19 17 17 17 23 26 25 24 21 18 16 15 16 17 21 28 34 37 40 42 43 43 43 43 44 44 45 44 43 42
16 7 16 23 20 27 28 18 11 12 2 5 7 11 15 8 14 19 22 25 26 23 20 18 16 16 19 25 31 37 40 41 41 41 42 42 43 44 44 44 44 43 42 40
26 19 11 20 26 29 28 28 21 17 16 5 2 8 2 4 9 10 15 21 25 22 18 17 20 23 28 33 37 39 40 40 41 42 42 42 41 41 42 40 39 36 36 37
34 15 21 28 23 23 26 30 31 27 11 13 8 31 22 26 26 19 19 21 22 21 24 23 25 31 36 38 38 38 39 40 39 39 39 38 37 34 33 33 33 35 35 38
33 19 17 10 18 25 28 35 36 38 35 30 13 20 22 21 16 13 20 24 27 28 27 30 34 37 36 34 35 37 37 36 36 36 35 35 33 32 32 33 34 36 38 39
26 31 28 24 15 12 28 34 41 40 31 27 40 43 42 35 28 28 29 28 29 32 34 38 40 34 33 35 36 36 35 34 35 35 35 33 32 32 32 34 37 38 38 37
35 35 33 35 33 31 33 35 35 37 38 33 42 40 42 40 34 30 30 30 32 39 42 39 33 33 34 36 35 35 34 34 34 34 32 32 32 34 38 39 39 37 37 38
37 30 34 36 36 35 38 44 40 47 43 40 41 49 48 44 42 36 36 39 44 41 34 31 34 35 37 37 36 33 33 35 35 32 32 35 37 40 39 36 36 38 37 37
36 34 28 22 28 29 30 47 51 51 49 47 46 49 41 38 39 39 36 36 35 31 32 34 37 38 38 36 34 34 32 32 31 33 38 39 38 36 34 37 39 38 37 36
24 25 26 16 19 8 28 37 34 26 28 34 37 34 32 31 30 30 32 29 31 35 36 38 38 39 35 33 31 29 30 31 36 38 36 36 34 33 37 39 38 37 37 38
26 24 19 14 19 23 26 22 22 19 29 29 26 33 33 34 34 29 30 32 34 35 36 38 40 36 34 32 29 29 33 38 38 34 35 32 33 36 38 39 37 37 38 40
31 32 32 14 6 7 25 28 24 24 32 33 30 27 22 21 28 28 27 31 34 36 41 36 32 31 31 30 33 37 34 31 31 30 31 32 35 38 39 37 36 38 39 40
31 33 34 31 21 23 36 36 31 19 26 25 21 18 23 26 24 26 31 36 38 42 35 31 30 30 30 33 33 31 28 29 30 31 31 34 38 37 38 36 37 38 39 40
27 20 23 25 16 15 32 27 30 27 21 21 23 23 22 29 33 35 38 40 42 38 34 30 31 33 33 32 32 30 30 30 32 32 33 36 37 39 40 37 40 40 39 41
28 36 30 26 19 22 16 12 12 13 15 19 27 30 32 36 38 38 41 40 38 34 32 30 32 34 34 33 32 32 32 33 33 33 35 37 38 41 40 39 41 39 39 41
33 37 39 38 40 36 28 20 23 25 29 30 32 31 32 37 39 42 45 43 37 32 31 32 34 36 35 35 33 34 35 34 34 36 37 38 39 39 41 38 41 39 40 43
32 36 40 41 38 29 29 28 25 27 28 27 26 28 32 37 40 44 44 40 36 32 33 35 35 37 37 35 36 37 36 34 36 38 39 40 37 39 41 39 40 39 41 45
41 44 42 30 21 20 22 23 22 23 25 26 26 29 29 31 34 37 38 38 36 39 41 42 39 40 38 35 38 38 36 37 38 39 39 38 37 41 38 38 40 41 44 47

GFSCGP_700_spd_033.txt.gz
Wind_Speed
21 24 25 19 16 15 16 17 17 19 19 21 22 22 22 26 28 26 25 24 17 16 16 16 18 16 12 12 11 10 9 8 7 7 8 9 9 6 4 5 7 8 10 14
25 30 21 19 20 19 20 20 24 23 23 26 25 28 27 28 29 27 26 20 17 17 18 17 14 11 11 11 10 9 8 7 6 5 3 4 4 6 10 11 11 12 17 17
30 23 18 21 22 24 26 26 27 24 23 26 28 34 32 31 29 22 20 18 19 19 20 19 15 14 12 10 10 8 7 8 8 7 6 6 11 11 12 12 12 14 16 17
25 30 32 31 32 29 33 30 25 23 21 15 12 7 12 9 15 17 17 18 21 23 22 20 17 16 14 13 12 13 12 11 11 11 12 13 13 13 13 15 18 21 24 27
31 28 25 27 28 27 30 27 23 19 17 20 22 12 12 19 17 16 19 22 22 22 21 20 18 16 16 14 14 15 14 13 14 13 14 17 18 21 22 24 26 28 29 30
41 39 33 28 27 23 21 16 13 12 12 7 24 22 9 14 12 13 15 17 21 22 21 21 20 19 18 17 17 17 16 16 16 17 18 20 22 25 28 30 31 31 32 33
32 36 34 32 26 20 21 18 3 2 4 5 11 17 23 12 14 13 16 19 21 20 20 23 23 21 19 19 18 20 20 19 18 21 24 28 30 31 31 32 33 34 35 34
15 11 27 29 32 25 27 27 9 7 4 3 11 10 9 14 18 17 19 20 20 20 23 25 23 21 20 20 22 23 21 20 23 28 31 33 34 35 36 37 38 38 38 39
14 16 14 21 27 29 24 30 28 4 4 2 9 11 13 17 16 17 22 19 18 21 24 24 23 22 23 23 23 22 22 27 30 34 35 36 37 39 40 40 41 41 41 41
21 8 15 27 22 30 23 25 16 12 2 4 5 12 15 10 16 15 16 16 19 23 25 28 26 24 24 23 23 25 29 33 35 36 36 37 39 40 41 42 42 42 41 41
36 22 12 26 30 34 37 27 19 14 12 5 2 7 7 16 16 13 11 14 19 22 25 25 24 24 24 24 27 30 33 38 38 37 39 40 40 40 41 40 39 39 39 37
41 21 23 29 25 33 33 38 39 24 11 14 10 15 15 14 15 17 15 12 16 20 23 26 26 26 26 27 32 35 39 40 39 38 38 37 38 37 38 36 35 36 36 36
37 23 14 11 24 29 37 42 38 37 33 31 10 11 13 18 17 19 20 19 20 22 25 28 31 30 28 32 37 40 36 37 37 37 36 36 36 35 34 34 34 34 35 37
33 37 33 32 22 27 44 42 41 38 34 30 41 37 33 31 25 30 25 21 22 24 28 32 32 31 35 39 37 34 35 36 37 36 34 32 32 33 33 32 33 35 37 37
42 44 47 44 34 30 26 28 35 46 46 33 42 41 42 39 38 34 34 29 29 31 32 33 34 35 40 36 32 33 34 35 34 33 32 31 31 30 32 34 36 38 37 36
48 38 44 42 43 39 35 38 37 33 35 37 39 46 43 40 41 39 36 32 30 29 32 34 41 39 31 30 32 33 33 33 33 33 31 30 30 31 35 36 36 37 36 37
52 47 34 31 38 39 32 55 49 47 48 45 44 48 44 41 36 32 30 30 33 36 38 41 38 32 31 32 33 35 32 31 33 31 30 30 32 36 36 36 36 36 38 37
46 42 29 15 17 8 26 25 27 30 33 32 32 34 26 25 24 27 30 30 32 31 31 29 29 32 34 35 37 33 30 29 29 29 31 34 37 36 36 36 37 39 39 39
35 32 23 13 21 15 18 24 26 22 25 23 19 16 20 25 27 29 31 33 32 28 28 30 32 34 36 39 34 31 29 27 29 32 36 36 35 35 36 36 38 39 40 39
34 33 32 15 7 10 24 28 26 27 29 26 24 21 21 24 29 28 27 27 25 25 27 30 35 38 38 33 31 29 28 29 32 31 31 31 32 33 34 36 38 39 40 39
30 29 35 30 17 13 25 19 17 15 20 24 23 19 19 23 20 20 23 25 25 30 33 34 36 33 29 28 28 28 29 30 28 29 30 31 32 32 34 36 39 39 39 39
33 24 25 20 12 12 23 25 26 27 22 21 22 19 17 20 22 23 26 28 30 31 33 34 34 30 26 27 28 29 30 28 28 29 30 30 31 32 35 37 40 40 40 41
16 20 17 20 19 23 17 16 14 13 13 16 19 23 27 27 27 27 29 29 31 33 35 36 33 29 27 28 30 31 30 29 30 30 30 30 32 34 36 38 39 40 39 40
26 28 29 29 32 33 23 14 15 14 16 19 23 25 27 28 27 27 29 32 34 34 35 34 30 30 30 31 32 33 32 31 31 32 33 33 35 37 39 39 42 40 40 42
25 28 33 36 33 22 22 23 17 18 21 23 24 27 28 25 25 26 28 31 32 33 33 30 31 33 34 34 33 32 35 34 32 34 35 35 37 39 40 40 40 39 40 38
35 39 34 24 17 14 18 14 16 21 24 25 26 25 26 24 23 25 26 27 29 28 32 33 33 35 36 36 32 34 35 34 34 35 36 36 38 39 40 40 40 39 38 38

GFSCGP_700_spd_036.txt.gz
Wind_Speed
24 24 27 20 18 20 18 19 20 20 16 19 21 22 25 26 26 26 28 28 25 23 19 16 15 15 16 14 13 12 11 10 10 10 9 9 10 10 8 5 5 5 5 10
25 28 21 20 22 22 23 22 23 24 23 24 25 29 26 31 32 32 30 28 25 23 19 18 16 16 14 12 12 11 10 8 7 7 7 6 5 4 6 7 8 8 9 12
29 25 20 21 25 25 26 26 25 25 26 27 28 33 35 36 35 33 31 28 25 21 19 19 17 14 13 11 10 11 12 11 12 11 10 10 11 12 11 12 13 13 15 17
26 32 30 28 26 25 27 27 26 27 25 17 14 12 17 15 16 24 26 24 20 20 19 19 18 17 15 14 13 12 12 12 13 13 14 16 15 14 15 16 19 22 24 27
27 26 27 30 31 28 30 27 26 25 22 21 20 13 17 25 26 20 19 19 19 20 21 21 19 18 17 16 15 15 15 15 16 18 19 18 17 18 21 23 26 29 32 34
37 35 31 31 27 23 26 21 19 15 15 12 24 23 10 18 18 19 20 20 21 22 22 22 22 21 21 21 20 20 19 20 21 21 23 23 22 23 25 27 29 30 31 32
39 42 40 37 29 26 25 17 5 6 6 7 12 18 24 14 16 18 19 18 21 22 23 23 22 23 24 23 22 22 22 22 23 23 24 24 24 27 29 30 31 32 33 34
19 13 27 30 35 30 31 26 12 7 6 2 12 11 14 22 24 19 18 18 22 23 23 22 22 24 24 25 25 25 26 26 26 23 25 27 30 32 34 34 35 36 36 37
16 18 21 22 22 32 26 28 29 7 7 3 10 14 14 19 26 22 23 23 23 22 21 20 22 24 26 27 28 29 29 27 24 25 28 32 35 37 38 36 36 36 37 38
24 19 17 24 24 30 27 26 17 15 5 7 8 12 18 24 25 25 25 23 24 22 22 24 25 27 28 30 31 31 29 26 26 29 33 35 37 36 36 36 37 38 39 39
34 25 18 24 32 37 36 29 21 17 19 4 5 8 9 20 18 21 21 22 23 22 22 23 26 28 30 33 33 30 28 28 30 34 36 37 37 36 37 38 38 39 39 37
33 21 25 32 28 39 40 31 43 20 12 19 15 15 13 11 17 24 22 24 23 21 21 23 26 29 32 33 31 29 29 32 35 38 39 37 37 37 37 37 37 37 36 38
31 24 19 17 28 33 43 44 43 44 26 34 13 13 18 21 23 24 24 26 20 18 21 23 26 28 30 33 32 31 33 36 40 41 38 36 36 36 35 36 36 36 37 36
37 39 39 35 21 28 45 48 51 48 36 39 50 32 23 26 27 26 26 23 27 23 21 24 26 28 32 35 33 32 35 40 40 36 34 36 35 35 35 35 35 34 35 37
44 46 46 52 39 31 28 35 48 58 63 34 47 42 38 36 34 31 30 32 29 27 25 29 29 31 34 36 34 36 40 38 34 35 36 35 36 36 35 34 32 34 36 38
49 45 46 55 56 57 47 41 44 43 53 61 46 43 33 29 29 32 34 33 33 33 28 28 29 33 37 37 38 41 35 32 35 35 35 35 35 34 33 32 33 36 39 39
53 56 39 40 45 42 30 68 51 50 48 50 50 54 42 38 35 33 34 36 34 32 27 27 30 33 38 39 40 36 32 34 36 36 35 34 33 33 32 34 36 38 39 40
55 56 42 28 27 11 37 34 40 57 45 49 47 45 41 39 34 33 35 33 30 27 29 31 33 37 40 40 35 34 35 36 37 33 32 31 31 33 35 38 40 39 40 41
44 53 31 15 23 16 21 26 29 33 44 44 42 37 31 26 25 26 28 28 29 30 29 29 31 33 31 31 34 36 39 38 33 30 28 29 32 36 40 39 38 39 39 40
31 32 42 15 7 9 21 25 22 21 27 23 20 19 22 22 26 27 27 28 30 29 27 25 25 27 29 33 38 39 37 31 30 27 27 32 34 36 36 36 37 38 39 41
37 38 40 33 19 18 24 18 20 17 15 12 13 16 18 22 24 23 25 26 25 23 22 25 28 32 35 36 35 33 30 28 25 27 29 31 32 32 34 36 37 38 39 41
32 25 27 22 16 14 21 24 24 19 14 15 17 12 12 17 19 19 22 23 24 25 27 30 31 31 32 32 30 27 26 25 27 28 30 31 32 32 33 34 36 38 40 42
19 25 17 20 15 16 9 17 17 19 15 9 9 13 16 19 23 22 22 24 25 25 25 27 29 30 28 26 24 23 23 27 28 28 29 30 32 33 33 35 37 39 40 42
26 23 26 24 24 24 22 19 16 11 17 17 15 19 21 21 22 23 24 22 21 23 24 27 28 28 26 24 25 26 28 30 31 31 31 32 34 34 35 36 39 41 42 43
30 27 33 35 29 15 15 18 16 12 13 17 21 22 22 23 25 25 23 21 19 22 25 27 28 29 26 23 26 29 31 34 33 34 36 35 36 37 38 39 40 41 42 43
31 30 26 20 13 12 7 5 12 17 19 22 23 24 25 25 25 22 21 21 23 25 27 27 26 26 25 26 28 30 33 32 33 37 37 36 39 39 38 37 38 40 42 43

GFSCGP_700_spd_042.txt.gz
Wind_Speed
26 26 31 25 23 22 20 19 15 12 14 20 24 26 24 26 28 29 29 30 29 31 30 29 28 26 24 20 18 18 17 16 16 14 13 12 12 11 11 12 13 12 10 10
25 32 25 25 18 21 22 22 25 24 24 26 29 32 30 29 35 35 34 37 36 37 33 32 31 28 23 20 19 18 18 16 15 14 14 12 12 12 12 13 11 11 13 16
29 23 15 19 27 25 27 26 24 21 21 25 28 39 38 36 37 39 41 44 44 43 38 35 31 27 25 23 21 18 16 17 17 17 15 14 15 14 13 13 14 16 18 20
26 30 28 23 24 22 26 24 21 22 22 15 12 12 24 19 23 33 35 36 36 32 33 36 31 28 27 24 21 19 20 19 18 18 18 17 17 16 15 16 18 20 21 22
29 28 29 32 34 25 25 24 22 24 26 24 30 22 32 23 24 36 39 35 37 33 27 30 31 29 26 25 23 21 20 19 19 19 19 20 20 20 19 19 21 22 23 24
36 32 26 26 26 26 29 24 21 22 23 13 32 31 24 31 28 26 33 33 33 32 27 26 29 28 28 25 23 21 21 20 19 20 21 22 23 23 23 22 24 24 26 27
39 43 39 33 29 25 25 20 3 3 4 8 10 21 39 6 17 19 24 22 26 28 27 27 27 28 26 25 23 21 21 20 21 21 22 23 24 24 24 24 26 27 28 29
28 15 33 40 46 34 27 31 13 7 5 4 9 13 18 21 21 28 30 24 24 26 27 25 26 26 25 24 23 22 21 20 21 22 23 24 26 27 28 30 30 30 31 33
20 19 20 18 15 34 20 29 29 21 22 9 15 29 35 32 33 28 25 29 27 27 28 27 27 26 25 22 20 20 21 22 23 25 26 28 29 31 31 31 32 33 34 37
22 11 21 23 24 26 23 15 18 23 3 6 8 24 26 13 17 23 27 28 29 29 29 27 25 24 24 23 23 22 23 24 26 28 30 31 32 32 32 33 34 35 38 38
38 27 15 23 28 30 39 26 15 17 16 4 4 13 13 18 19 21 21 26 29 29 27 25 25 25 24 24 22 23 24 26 29 31 31 32 33 33 35 35 36 36 38 39
40 23 19 30 29 26 31 34 40 22 10 24 24 46 27 14 12 15 18 22 29 31 28 27 26 26 25 24 23 24 27 29 32 33 34 35 35 37 37 37 36 38 39 40
40 27 18 19 24 23 34 39 39 35 29 43 13 39 15 19 27 21 21 23 28 32 33 35 33 31 29 26 25 28 30 32 35 36 36 37 37 39 38 38 38 38 37 37
27 33 35 34 21 24 36 47 48 45 40 31 54 50 39 29 22 19 18 24 27 34 40 40 37 34 30 28 29 30 31 35 37 38 39 39 40 40 40 38 38 36 37 38
39 40 42 53 50 34 22 23 32 51 59 37 62 49 51 49 45 37 30 28 30 33 39 41 38 34 32 30 29 30 34 37 38 39 40 39 41 40 41 39 35 36 38 39
44 45 42 52 52 52 56 49 45 42 43 51 56 66 46 38 36 39 40 36 35 36 38 39 39 37 33 33 30 31 35 37 37 40 40 41 43 43 44 36 35 38 40 39
48 48 40 45 42 43 29 74 65 63 60 61 61 69 51 49 47 39 35 35 34 37 39 38 36 37 34 30 30 30 33 35 37 39 40 44 45 45 37 35 38 40 39 38
54 54 45 36 24 13 58 45 40 44 50 58 61 63 56 42 42 47 47 42 41 39 42 37 35 33 30 29 31 32 34 37 40 41 44 46 48 39 35 38 40 39 37 36
47 48 34 22 31 37 31 32 34 37 45 39 45 46 48 48 44 42 41 45 42 45 48 45 46 43 42 32 27 32 37 39 40 43 45 48 40 37 39 41 38 36 35 34
61 58 55 24 11 11 30 28 33 28 45 33 31 36 37 41 46 45 42 42 45 49 49 56 45 31 24 30 32 34 36 37 38 43 44 38 39 42 42 38 34 32 32 33
39 39 44 42 20 15 27 19 12 19 23 18 13 16 25 34 33 34 35 36 35 37 29 26 26 26 29 30 30 31 33 34 36 38 38 39 42 41 36 32 31 30 31 33
15 20 23 25 12 14 24 20 21 22 24 21 18 16 20 24 25 29 34 30 24 24 24 25 27 27 27 28 28 29 30 31 34 37 39 40 39 35 32 30 30 31 33 34
20 27 23 19 14 20 20 19 21 24 24 27 25 22 20 20 22 24 25 24 24 24 23 23 24 24 25 25 27 28 31 34 35 36 36 35 33 32 30 31 32 33 33 33
28 31 35 29 32 31 28 30 24 25 22 17 16 14 13 15 18 22 23 23 24 23 24 25 25 25 26 28 30 31 31 31 32 32 31 30 30 31 31 32 33 34 35 37
29 28 32 34 34 27 24 25 21 17 18 16 18 17 18 22 22 21 20 22 25 25 24 24 24 27 28 29 28 27 27 27 27 27 28 29 29 30 31 33 36 37 38 38
32 28 28 29 26 26 22 18 17 17 15 18 17 15 19 22 21 19 22 25 25 24 24 26 26 24 24 25 25 24 23 23 25 27 29 29 31 33 35 38 40 39 37 40

GFSCGP_700_spd_045.txt.gz
Wind_Speed
23 26 29 23 21 20 19 20 20 15 11 17 21 25 24 25 27 29 29 27 28 27 29 29 29 29 29 27 25 22 20 19 17 17 16 15 14 13 12 11 10 10 10 10
23 29 22 21 22 22 22 23 26 26 26 26 29 35 33 32 33 31 31 31 31 34 35 34 35 34 32 29 26 22 20 20 18 18 17 16 15 13 12 10 10 9 11 12
28 22 17 18 21 22 24 26 26 24 23 26 30 42 39 37 37 35 35 36 39 39 39 39 39 37 33 29 26 22 21 20 19 18 18 17 15 14 13 13 13 13 14 15
26 27 27 26 26 19 26 25 26 26 24 23 21 19 38 39 38 36 37 38 38 39 38 38 35 35 34 29 26 23 23 21 19 19 18 18 17 17 16 16 16 17 18 19
33 30 28 31 33 26 27 23 23 22 25 30 28 21 33 26 36 40 33 36 38 38 36 34 32 30 33 30 27 26 25 23 22 21 20 19 18 18 19 19 20 21 21 22
40 37 30 28 22 24 28 24 25 23 24 12 35 32 27 35 35 18 20 25 32 34 32 29 30 32 32 31 29 27 27 25 23 22 21 20 19 20 21 23 24 25 25 25
42 43 40 34 28 25 25 22 4 4 3 9 19 24 41 17 23 25 21 24 27 23 25 28 30 28 30 31 29 28 28 25 24 23 21 21 21 23 24 25 27 27 26 26
32 22 44 41 44 37 32 32 15 7 5 4 10 14 20 19 20 35 34 32 32 28 25 26 28 29 30 30 29 28 27 25 25 24 23 22 23 24 26 27 28 28 29 30
18 22 18 21 23 38 28 37 34 25 17 10 17 31 39 39 33 18 20 27 31 31 28 26 26 29 29 28 28 27 26 26 26 25 24 24 25 26 27 29 29 30 31 31
25 9 21 25 21 30 34 27 19 21 3 6 9 22 29 21 24 21 16 23 27 31 30 26 27 28 28 27 28 28 27 27 26 26 25 25 27 28 29 31 32 32 33 32
43 28 11 27 34 34 36 30 19 18 17 5 5 14 10 12 13 10 14 17 20 23 26 25 26 27 27 28 29 29 28 28 27 27 27 28 30 31 32 33 33 34 34 33
43 26 27 29 25 34 38 41 43 24 13 19 20 48 30 28 22 22 19 18 21 22 24 23 26 28 28 28 29 30 29 28 27 28 30 32 33 34 35 35 35 36 36 34
36 26 17 15 27 28 32 38 42 42 36 39 14 44 14 17 17 16 22 28 30 28 28 27 29 29 28 29 31 30 30 27 26 28 32 34 35 36 37 36 37 37 37 36
32 35 41 40 31 31 41 44 44 44 41 38 57 59 49 37 29 27 23 19 23 25 25 28 31 33 33 33 34 34 31 26 27 30 33 35 37 38 38 38 38 38 39 38
45 45 47 52 45 35 32 33 37 51 55 37 66 52 55 49 42 35 34 36 35 31 29 30 29 35 38 38 38 35 29 26 27 31 36 37 39 40 40 40 40 40 40 38
48 49 47 54 52 50 44 42 48 45 49 58 62 68 52 48 45 42 40 37 36 38 38 36 36 35 40 41 37 32 25 24 26 30 37 40 41 41 40 40 41 41 41 36
50 53 41 44 45 45 34 73 61 62 60 59 60 73 58 56 54 53 49 45 39 33 34 37 37 37 40 37 34 25 23 26 30 33 37 41 42 42 40 42 43 45 38 36
48 50 41 41 20 13 58 51 52 55 60 63 69 70 66 62 58 53 50 41 42 41 37 36 34 35 37 36 29 28 29 32 34 36 37 40 41 41 42 42 43 39 36 38
50 50 31 21 30 35 37 43 45 39 51 41 48 42 35 38 37 42 38 36 34 38 39 40 38 35 42 40 36 37 41 40 43 40 38 39 39 41 42 44 42 37 38 36
59 61 55 28 13 14 42 38 42 33 48 39 35 39 31 31 39 34 34 36 37 33 34 36 38 42 45 45 47 47 42 35 30 33 38 36 36 41 43 42 38 35 36 36
50 53 50 48 27 20 31 18 13 25 29 20 18 15 19 28 30 29 29 27 28 30 33 36 37 44 49 51 49 42 29 29 31 33 34 35 37 39 39 36 37 36 35 34
33 26 28 35 19 16 25 18 24 23 22 20 21 15 16 17 19 21 22 23 23 24 27 31 31 32 31 30 29 29 30 31 32 33 33 33 35 35 36 37 35 33 32 31
16 23 12 14 10 18 19 18 21 22 21 23 22 20 21 23 22 23 20 20 22 29 29 27 25 25 27 27 27 28 28 28 29 29 30 31 34 34 33 32 31 30 29 30
32 22 17 17 22 24 27 26 26 26 27 28 26 18 15 19 20 19 19 19 20 22 23 23 23 22 23 24 24 24 25 26 27 28 29 29 29 28 28 29 29 30 31 33
29 22 23 27 29 28 23 25 28 26 21 18 15 13 16 17 17 18 19 21 22 22 23 22 21 22 23 23 24 25 26 26 26 26 26 26 26 27 29 30 32 33 34 36
27 27 28 28 24 24 26 26 25 20 16 16 15 17 19 19 19 21 21 21 22 23 23 19 19 21 23 25 26 26 25 25 25 24 24 25 27 30 32 34 35 35 37 40

GFSCGP_700_spd_048.txt.gz
Wind_Speed
21 23 28 21 19 18 20 20 21 18 16 21 22 24 21 21 25 25 26 27 27 26 27 29 27 27 27 27 26 25 24 23 23 24 23 22 21 20 18 17 16 15 13 12
22 27 18 18 21 22 23 24 27 26 25 29 31 34 31 31 34 33 31 31 29 30 32 32 32 31 31 31 30 28 26 25 24 25 24 22 22 21 20 19 17 16 13 13
26 22 17 19 22 24 25 27 26 25 25 29 30 40 38 35 36 35 35 33 34 33 35 36 37 36 36 34 32 31 28 25 24 25 24 24 23 22 21 20 19 17 16 16
27 28 29 28 28 22 27 24 24 25 26 27 20 17 38 38 38 37 35 33 32 34 35 36 36 36 35 34 35 34 29 26 26 26 25 24 23 21 21 21 20 19 18 19
35 30 29 31 32 26 30 25 24 24 28 30 33 23 32 27 38 37 32 27 23 26 30 34 35 34 34 34 31 32 30 28 28 26 25 24 23 23 22 21 20 20 21 22
40 39 35 33 27 24 28 27 26 25 24 13 37 31 28 35 37 32 21 19 19 21 23 29 33 34 35 34 32 32 32 30 29 27 24 24 23 22 20 20 20 22 23 24
42 45 43 40 33 25 27 22 5 5 4 9 19 23 40 30 34 28 21 21 30 26 28 27 28 29 30 29 30 30 32 30 29 27 25 25 24 23 22 22 23 24 25 26
36 23 46 44 47 36 33 34 17 7 5 5 9 15 18 20 21 32 31 26 22 29 25 25 26 24 26 28 31 30 31 31 30 27 26 26 26 24 23 24 26 27 28 29
17 24 22 27 33 36 32 42 38 29 19 10 19 36 44 40 35 16 16 24 27 29 26 25 24 22 24 29 31 29 30 31 29 28 28 27 27 26 26 27 29 30 30 30
28 17 20 24 25 35 40 27 19 24 2 6 9 20 26 20 17 12 12 14 21 21 20 20 22 22 23 27 30 30 31 30 29 29 29 29 29 29 29 30 31 31 32 32
43 29 16 18 31 38 37 38 24 18 19 5 3 12 8 6 6 14 7 9 17 20 20 17 18 21 24 27 29 30 31 32 32 32 32 31 31 31 31 32 33 33 34 34
38 24 34 30 23 33 40 39 42 18 11 22 21 41 30 25 28 19 22 23 23 23 27 20 18 21 24 28 30 31 31 33 34 33 33 34 33 33 34 34 34 35 35 35
26 25 19 17 29 32 39 41 39 45 25 36 14 38 13 20 20 15 21 25 23 24 29 32 27 22 25 28 30 31 32 34 36 36 36 36 35 35 36 36 36 36 37 37
28 28 35 36 16 28 42 43 47 45 39 42 50 55 44 32 40 43 43 36 24 24 23 27 27 27 26 28 30 32 34 36 38 39 38 36 36 37 36 37 38 39 39 39
43 44 43 52 47 35 34 38 43 54 63 33 72 50 63 56 48 46 41 39 37 33 31 31 32 29 27 28 29 33 35 37 39 41 39 36 39 39 39 39 40 41 40 40
42 48 42 53 51 52 52 48 54 55 56 59 66 68 52 51 50 49 49 45 41 38 33 32 31 38 34 31 30 32 35 38 42 41 38 39 42 40 40 39 42 42 42 42
50 50 45 46 49 43 32 72 57 57 58 57 59 71 59 57 58 57 52 52 52 48 42 43 37 33 39 39 33 32 35 37 42 40 38 42 43 40 41 42 43 44 44 42
49 52 51 45 31 17 67 60 58 64 67 64 66 67 62 62 51 46 54 54 48 49 49 44 40 35 33 33 34 36 38 40 42 39 43 43 41 43 43 44 43 46 45 42
39 48 33 26 35 26 35 54 41 39 53 53 62 55 45 36 40 45 35 31 36 42 41 34 34 37 33 35 37 38 39 40 42 45 44 42 45 44 45 40 43 45 44 44
53 58 48 21 16 12 48 43 46 30 42 51 44 49 44 37 43 43 30 32 34 35 35 33 31 35 38 37 40 39 39 44 46 47 48 47 47 44 38 35 38 40 43 41
43 53 52 48 30 20 41 35 17 27 37 29 19 25 26 31 30 30 25 29 31 30 28 28 30 27 27 29 32 37 43 47 49 48 36 34 35 37 35 36 37 39 37 33
21 25 38 41 31 26 42 34 32 34 34 28 17 15 20 22 23 27 29 24 25 25 24 23 24 27 28 30 32 35 40 45 41 39 34 32 32 32 30 31 33 31 32 33
30 30 20 20 14 33 32 30 28 30 33 31 28 28 28 26 26 26 27 27 23 21 19 19 21 25 28 26 27 27 25 25 26 28 28 28 27 26 26 28 30 32 32 32
34 35 35 31 32 22 19 16 13 14 19 21 20 22 24 25 25 27 24 23 18 15 16 20 26 25 22 23 24 25 26 27 26 25 25 24 25 26 28 29 29 30 29 30
34 32 38 36 40 39 30 16 20 22 25 23 23 24 20 19 20 19 19 17 17 17 17 16 18 20 21 22 22 22 23 23 24 25 25 25 25 25 24 25 26 28 30 32
42 41 37 38 30 22 18 17 24 24 28 29 25 23 21 20 18 18 17 16 16 17 17 18 20 20 20 20 20 21 22 23 23 23 22 22 21 22 23 25 27 30 33 35